Enid, OK

10:47 AM CST on January 20, 2017 (GMT -0600)
Enid Woodring Municipal

Weather History for KWDG - January, 2014

Change the Weather History Date:

Wednesday, January 1, 2014

  Actual Average Record
Temperature  
Mean Temperature 32 °F -  
Max Temperature 46 °F 46 °F 75 °F (2006)
Min Temperature 19 °F 27 °F 12 °F (2011)
Degree Days  
Heating Degree Days 32    
Moisture  
Dew Point 24 °F    
Average Humidity 83    
Maximum Humidity 93    
Minimum Humidity 57    
Precipitation  
Precipitation 0.00 in - - ()
Sea Level Pressure  
Sea Level Pressure 30.08 in    
Wind  
Wind Speed 12 mph (North)    
Max Wind Speed 30 mph    
Max Gust Speed 37 mph    
Visibility 9 miles    
Events Snow    
Averages and records for this station are not official NWS values.
T = Trace of Precipitation, MM = Missing Value Source: NWS Daily Summary

Daily Weather History Graph

Daily Weather History Graph

Search for Another Location

Airport or City:

Trip Planner

Search our weather history database for the weather conditions in past years. The results will help you decide how hot, cold, wet, or windy it might be!

Date:

Astronomy

Jan. 01, 2014 Rise Set
Actual Time 7:42 AM CST 5:26 PM CST
Civil Twilight 7:14 AM CST 5:55 PM CST
Nautical Twilight 6:42 AM CST 6:27 PM CST
Astronomical Twilight 6:10 AM CST 6:59 PM CST
Moon 7:36 AM CST (1/1) 6:11 PM CST (1/1)
Length of Visible Light 10h 41m
Length of Day
9h 44m
New Moon, 0% of the Moon is Illuminated
Jan 1
New Moon
Jan 7
First Quarter
Jan 15
Full
Jan 23
Last Quarter
Jan 30
New

Hourly Weather History & Observations

Time (CST) Temp. Windchill Dew Point Humidity Pressure Visibility Wind Dir Wind Speed Gust Speed Precip Events Conditions
12:15 AM 30.2 °F 22.6 °F 28.4 °F 93% 30.05 in 10.0 mi South 8.1 mph - N/A   Clear
12:35 AM 30.2 °F 23.4 °F 26.6 °F 86% 30.03 in 10.0 mi South 6.9 mph - N/A   Clear
12:55 AM 30.2 °F 24.3 °F 26.6 °F 86% 30.02 in 10.0 mi South 5.8 mph - N/A   Clear
1:15 AM 30.2 °F 23.4 °F 26.6 °F 86% 30.02 in 10.0 mi South 6.9 mph - N/A   Clear
1:35 AM 28.4 °F 22.2 °F 26.6 °F 93% 30.01 in 10.0 mi South 5.8 mph - N/A   Clear
1:55 AM 28.4 °F 21.2 °F 26.6 °F 93% 30.00 in 10.0 mi South 6.9 mph - N/A   Clear
2:15 AM 28.4 °F 21.2 °F 26.6 °F 93% 29.99 in 10.0 mi SSE 6.9 mph - N/A   Clear
2:35 AM 30.2 °F 21.9 °F 26.6 °F 86% 29.99 in 10.0 mi South 9.2 mph - N/A   Clear
2:55 AM 30.2 °F 21.9 °F 26.6 °F 86% 29.97 in 10.0 mi SSE 9.2 mph - N/A   Clear
3:15 AM 30.2 °F 21.3 °F 28.4 °F 93% 29.96 in 10.0 mi SSE 10.4 mph - N/A   Clear
3:35 AM 30.2 °F 22.6 °F 28.4 °F 93% 29.96 in 10.0 mi SSE 8.1 mph - N/A   Clear
3:55 AM 28.4 °F 20.4 °F 26.6 °F 93% 29.95 in 10.0 mi South 8.1 mph - N/A   Clear
4:15 AM 30.2 °F 23.4 °F 26.6 °F 86% 29.94 in 10.0 mi SSE 6.9 mph - N/A   Clear
4:35 AM 28.4 °F 19.7 °F 26.6 °F 93% 29.92 in 10.0 mi SSE 9.2 mph - N/A   Clear
4:55 AM 30.2 °F 22.6 °F 28.4 °F 93% 29.92 in 10.0 mi SSE 8.1 mph - N/A   Clear
6:18 AM 28.4 °F 18.5 °F 26.6 °F 93% 29.90 in 10.0 mi SSE 11.5 mph - N/A   Clear
6:50 AM 28.4 °F 22.2 °F 26.6 °F 93% 29.90 in 10.0 mi SSE 5.8 mph - N/A   Clear
7:55 AM 26.6 °F - 24.8 °F 93% 29.92 in 10.0 mi Calm Calm - N/A   Clear
8:50 AM 32.0 °F 24.2 °F 30.2 °F 93% 29.93 in 10.0 mi NE 9.2 mph - N/A   Scattered Clouds
9:50 AM 41.0 °F 33.5 °F 32.0 °F 70% 29.93 in 10.0 mi ESE 13.8 mph - N/A   Mostly Cloudy
10:50 AM 44.6 °F 40.7 °F 32.0 °F 61% 29.94 in 10.0 mi SSE 6.9 mph - N/A   Scattered Clouds
11:50 AM 44.6 °F - 32.0 °F 61% 29.93 in 10.0 mi Calm Calm - N/A   Mostly Cloudy
12:50 PM 46.4 °F 41.1 °F 32.0 °F 57% 29.91 in 10.0 mi NNW 11.5 mph 17.3 mph N/A   Mostly Cloudy
1:50 PM 42.8 °F 35.1 °F 32.0 °F 66% 29.93 in 10.0 mi North 16.1 mph - N/A   Mostly Cloudy
2:50 PM 32.0 °F 18.1 °F 26.6 °F 80% 29.98 in 10.0 mi NNW 27.6 mph 35.7 mph N/A   Overcast
3:30 PM 32.0 °F 20.1 °F 24.8 °F 75% 30.02 in 7.0 mi NNW 19.6 mph 35.7 mph N/A   Overcast
3:50 PM 30.2 °F 16.2 °F 23.0 °F 75% 30.05 in 7.0 mi North 25.3 mph 32.2 mph N/A   Overcast
4:50 PM - - 21.2 °F N/A% 30.10 in 7.0 mi NNW 28.8 mph 35.7 mph N/A   Overcast
5:50 PM 26.6 °F 11.1 °F 19.4 °F 74% 30.14 in 7.0 mi NNW 26.5 mph 32.2 mph N/A   Overcast
7:50 PM 23.0 °F 5.4 °F 15.8 °F 74% 30.24 in 7.0 mi NNW 29.9 mph 35.7 mph N/A Snow Light Snow
8:15 PM 23.0 °F 5.7 °F 17.6 °F 80% 30.27 in 7.0 mi NNW 28.8 mph 35.7 mph N/A Snow Light Snow
8:35 PM 23.0 °F 8.3 °F 17.6 °F 80% 30.28 in 7.0 mi North 19.6 mph 25.3 mph N/A Snow Light Snow
8:50 PM 21.2 °F 4.2 °F 15.8 °F 80% 30.28 in 5.0 mi NNW 25.3 mph 33.4 mph N/A Snow Light Snow
8:55 PM 21.2 °F 5.2 °F 17.6 °F 86% 30.28 in 4.0 mi NNW 21.9 mph 31.1 mph N/A Snow Light Snow
9:15 PM 21.2 °F 4.2 °F 17.6 °F 86% 30.29 in 3.0 mi North 25.3 mph 35.7 mph N/A Snow Light Snow
9:35 PM 21.2 °F 4.9 °F 17.6 °F 86% 30.29 in 4.0 mi North 23.0 mph 36.8 mph N/A Snow Light Snow
9:55 PM 21.2 °F 4.5 °F 17.6 °F 86% 30.31 in 4.0 mi NNW 24.2 mph 28.8 mph N/A Snow Light Snow
10:15 PM 21.2 °F 4.9 °F 17.6 °F 86% 30.32 in 5.0 mi NNW 23.0 mph 27.6 mph N/A Snow Light Snow
10:35 PM 21.2 °F 6.8 °F 17.6 °F 86% 30.32 in 10.0 mi North 17.3 mph - N/A   Mostly Cloudy
10:55 PM 21.2 °F 6.4 °F 15.8 °F 80% 30.33 in 10.0 mi North 18.4 mph 24.2 mph N/A   Scattered Clouds
11:15 PM 19.4 °F 3.6 °F 15.8 °F 86% 30.33 in 10.0 mi North 19.6 mph 24.2 mph N/A   Clear
11:35 PM 19.4 °F 4.1 °F 15.8 °F 86% 30.33 in 10.0 mi North 18.4 mph 23.0 mph N/A   Clear
11:55 PM 21.2 °F 6.8 °F 15.8 °F 80% 30.34 in 10.0 mi North 17.3 mph 23.0 mph N/A   Clear